sat.trackr.live / text

‹ back to catalog

STARLINK-3179

NORAD 51141 · 2022-005AP

PAYLOAD ACTIVE UNKNOWN

§ Identity

Operator
Country
US
Launch date
2022-01-19
Launch site
AFETR
Launch vehicle
Mass (kg)
RCS (m²)

Purposes: comms

External: N2YO · Heavens-Above · Gunter

§ Orbital elements

Epoch: 2026-09-20T03:32:45.818592Z

Period
93.85 min
Inclination
53.1590°
Eccentricity
0.0001194
Mean motion
15.34387245 rev/d
Perigee alt
461.9 km
Apogee alt
463.6 km
Semi-major
6,840.9 km
B*
5.0692e-5
RAAN
131.1040°
Arg perigee
88.0649°
Mean anomaly
272.0490°
Rev number
25,830

§ Raw data

STARLINK-31791 51141U 22005AP  26263.14775253  .00001336  00000+0  50692-4 0  99922 51141  53.1590 131.1040 0001194  88.0649 272.0490 15.34387245258301

JSON: /api/v1/satellites/51141 · /tle

For live sub-satellite position, see the globe view (requires WebGL).

§ Visibility from observer

Set your observer location to see the next 7 days of passes ≥ 10°. The values pass through the URL so the page stays shareable.

No JS? Fill the form by hand. The geolocation button needs JavaScript.